DW9227 Weather Reports


Display with metric or nautical units.
time (UTC)temp
F
wind
direction
speed
MPH
gust
MPH
rain 1hr
in
rain 24hr
in
rain mn
in
humidity
%
barometer
mb
20260506044525 54 112 0.0 3.0 0.06 0.31 0.06 94 1009.2
20260506043012 54 112 0.0 1.0 0.03 0.28 0.03 94 1009.3
20260506041512 55 112 0.0 1.0 0.02 0.28 0.02 94 1009.3
20260506040010 55 112 0.0 0.0 0.00 0.26 0.00 94 1009.5
20260506034508 55 112 0.0 0.0 0.00 0.32 0.00 94 1009.7
20260506033006 55 112 0.0 0.0 0.00 0.32 0.00 94 1009.9
20260506031515 55 112 0.0 0.0 0.00 0.32 0.00 94 1010.2
20260506030008 54 112 0.0 0.0 0.00 0.32 0.00 94 1010.2
20260506024506 55 112 0.0 0.0 0.00 0.34 0.00 93 1010.5
20260506023100 55 112 0.0 0.0 0.00 0.34 0.00 93 1010.6
20260506023000 55 112 0.0 0.0 0.00 0.34 0.00 93 1010.6
20260506021601 55 112 0.0 0.0 0.00 0.34 0.00 93 1010.8
20260506020055 55 112 0.0 0.0 0.00 0.34 0.00 93 1010.8
20260506014603 55 112 0.0 0.0 0.00 0.35 0.00 93 1010.9
20260506013055 55 112 0.0 0.0 0.00 0.35 0.00 93 1011.0
20260506011551 55 112 0.0 1.0 0.00 0.35 0.00 93 1011.4
20260506010053 55 112 0.0 2.0 0.00 0.35 0.00 93 1011.7
20260506004551 55 112 0.0 0.0 0.00 0.35 0.00 93 1011.8
20260506003048 55 112 0.0 0.0 0.00 0.35 0.00 93 1011.7
20260506001551 55 112 0.0 0.0 0.00 0.35 0.00 93 1012.0
20260506000045 55 112 0.0 1.0 0.00 0.35 0.00 93 1012.1
20260505234543 55 112 0.0 0.0 0.00 0.35 0.00 93 1012.4
20260505233044 55 112 0.0 0.0 0.00 0.35 0.00 93 1012.5
20260505231542 55 112 0.0 0.0 0.00 0.35 0.00 93 1012.7
20260505230047 55 112 0.0 0.0 0.00 0.35 0.00 93 1012.3
20260505224538 55 112 0.0 0.0 0.00 0.35 0.00 93 1012.8
20260505223036 55 112 0.0 0.0 0.00 0.35 0.00 93 1013.0
20260505221536 55 112 0.0 0.0 0.00 0.35 0.00 93 1013.0
20260505220040 55 112 0.0 0.0 0.00 0.35 0.00 92 1012.8
20260505214536 55 112 0.0 0.0 0.00 0.35 0.35 92 1013.1
20260505213035 55 112 0.0 2.0 0.00 0.35 0.35 92 1013.2
20260505211534 55 112 0.0 1.0 0.00 0.35 0.35 92 1013.3
20260505210031 55 112 0.0 0.0 0.00 0.35 0.35 92 1013.4
20260505204533 55 112 0.0 0.0 0.00 0.35 0.35 92 1013.4
20260505203034 55 112 0.0 1.0 0.00 0.35 0.35 92 1013.3
20260505201534 55 112 0.0 0.0 0.00 0.35 0.35 92 1013.2
20260505200029 55 112 0.0 0.0 0.00 0.35 0.35 92 1013.2
20260505194529 55 112 0.0 0.0 0.01 0.35 0.35 92 1013.2
20260505193031 55 112 0.0 0.0 0.01 0.35 0.35 91 1013.2
20260505191528 55 112 0.0 0.0 0.01 0.35 0.35 91 1013.0
20260505190036 55 112 0.0 6.0 0.01 0.35 0.35 89 1013.0
20260505184530 56 112 0.0 1.0 0.00 0.35 0.35 89 1012.7
20260505183028 56 116 0.0 0.0 0.00 0.35 0.35 89 1012.8
20260505181626 56 115 0.0 4.0 0.00 0.35 0.35 88 1012.6
20260505180034 56 117 0.0 7.0 0.00 0.35 0.35 87 1012.7
20260505174523 56 116 0.0 1.0 0.00 0.35 0.35 86 1012.7
20260505173023 56 116 0.0 2.0 0.00 0.35 0.35 86 1012.8
20260505171524 57 106 0.0 6.0 0.00 0.35 0.35 86 1012.8
20260505170021 57 123 0.0 11.0 0.00 0.35 0.35 83 1012.8
20260505164523 58 126 0.0 3.0 0.00 0.35 0.35 82 1012.9
20260505163020 58 126 0.0 0.0 0.00 0.35 0.35 82 1012.9
20260505161520 58 126 0.0 1.0 0.00 0.35 0.35 81 1012.9
20260505153022 58 84 0.0 6.0 0.00 0.35 0.35 80 1013.0
20260505151519 59 95 0.0 4.0 0.00 0.35 0.35 80 1012.9
20260505124508 57 73 0.0 0.0 0.00 0.35 0.35 84 1013.5
20260505123007 57 73 0.0 3.0 0.00 0.35 0.35 85 1013.6
20260505121506 57 73 0.0 3.0 0.00 0.35 0.35 85 1013.7
20260505120006 56 74 0.0 3.0 0.00 0.35 0.35 85 1013.6
20260505114505 56 124 0.0 1.0 0.00 0.35 0.35 87 1013.7
20260505113006 56 125 0.0 6.0 0.00 0.35 0.35 88 1013.7
20260505111513 56 125 0.0 1.0 0.00 0.35 0.35 90 1013.9
20260505101501 56 310 0.0 2.0 0.00 0.35 0.35 92 1014.2
20260505094600 55 301 0.0 3.0 0.00 0.35 0.35 89 1014.1
20260505093059 55 299 0.0 0.0 0.00 0.35 0.35 89 1014.1
20260505091620 55 299 0.0 0.0 0.00 0.35 0.35 89 1014.2
20260505090122 55 299 0.0 0.0 0.00 0.35 0.35 89 1014.0
20260505084614 54 299 0.0 0.0 0.00 0.35 0.35 89 1013.8
20260505083110 54 299 0.0 1.0 0.00 0.35 0.35 90 1013.8
20260505081603 54 299 0.0 0.0 0.00 0.35 0.35 91 1013.7
20260505074554 54 299 0.0 0.0 0.00 0.35 0.35 92 1013.9
20260505073059 54 299 0.0 0.0 0.01 0.35 0.35 93 1013.9
20260505071612 53 299 0.0 0.0 0.02 0.35 0.35 93 1014.1
20260505070053 53 299 0.0 0.0 0.04 0.35 0.35 94 1014.2
20260505064549 53 299 0.0 0.0 0.06 0.35 0.35 93 1014.3
20260505063052 53 299 0.0 0.0 0.09 0.34 0.34 93 1014.4
20260505061547 52 299 0.0 0.0 0.13 0.33 0.33 92 1014.5
20260505060058 52 299 0.0 0.0 0.12 0.31 0.31 92 1014.5